Flag for Romania Weather past 2 weeks in Timișoara, Romania

Now
64 °F

Clear.


Feels Like: 64 °F
Forecast: 55 / 68 °F
Wind: 6 mph from East

Location: Timisoara Airport

Current Time: Apr 27, 2015 at 11:38:33 PM

Latest Report: Apr 27, 2015 at 11:00 PM


Visibility: 10 mi

Pressure: 29.71 "Hg

Humidity: 64%

Dew point: 52 °F

Location of TimișoaraLocation

Historic Weather in Timișoara — Graph

°F

Timișoara temperature yesterday

Maximum temperature yesterday: 75 °F (at 2:30 PM)
Minimum temperature yesterday: 45 °F (at 5:00 AM)
Average temperature yesterday: 61 °F

Past Weeks' High & Low Weather Summary

 TemperatureHumidityPressure
High79 °F (Apr 16, 3:00 PM)100% (Apr 18, 12:30 AM)30.30 "Hg (Apr 18, 12:30 AM)
Low30 °F (Apr 20, 5:30 AM)13% (Apr 16, 4:30 PM)29.74 "Hg (Apr 27, 6:30 PM)
Average56 °F58%30.04 "Hg
* Reported Apr 12 10:00 PM — Apr 27 10:00 PM, Timișoara, Weather by CustomWeather, © 2015

Note: Actual official high and low records may vary slightly from our data, if they occured in-between our weather recording intervals... More about our weather records

Advertising

Timișoara weather history for previous 24 hours

 ConditionsComfort  
Time TempWeatherWind HumidityBarometerVisibility
10:00 PM
Mon, Apr 27
63 °FClear.7 mph68%29.74 "Hg10 mi
9:30 PM64 °FSunny.6 mph64%29.74 "Hg10 mi
9:00 PM66 °FSunny.7 mph56%29.74 "Hg10 mi
8:30 PM68 °FSunny.8 mph53%29.74 "Hg10 mi
8:00 PM73 °FSunny.5 mph36%29.74 "Hg10 mi
7:30 PM75 °FSunny.6 mph34%29.74 "Hg10 mi
7:00 PM77 °FSunny.7 mph30%29.74 "Hg10 mi
6:30 PM79 °FSunny.10 mph28%29.74 "Hg10 mi
6:00 PM79 °FPassing clouds.9 mph26%29.77 "HgN/A
5:30 PM79 °FPassing clouds.8 mph28%29.77 "HgN/A
5:00 PM79 °FPassing clouds.10 mph26%29.77 "HgN/A
4:30 PM79 °FPassing clouds.9 mph24%29.80 "HgN/A
4:00 PM79 °FPassing clouds.6 mph30%29.80 "HgN/A
3:30 PM79 °FPassing clouds.9 mph30%29.80 "HgN/A
3:00 PM77 °FSunny.9 mph32%29.80 "Hg10 mi
2:30 PM77 °FPassing clouds.9 mph36%29.83 "HgN/A
2:00 PM75 °FPassing clouds.8 mph44%29.83 "HgN/A
1:30 PM75 °FPassing clouds.6 mph44%29.86 "HgN/A
1:00 PM73 °FPassing clouds.5 mph44%29.86 "HgN/A
12:30 PM73 °FPassing clouds.5 mph44%29.86 "HgN/A
12:00 PM72 °FSunny.2 mph47%29.86 "Hg10 mi
11:30 AM70 °FSunny.2 mph50%29.86 "Hg10 mi
11:00 AM68 °FPassing clouds.5 mph56%29.89 "HgN/A
10:30 AM66 °FPassing clouds.5 mph60%29.89 "HgN/A
10:00 AM63 °FPassing clouds.3 mph64%29.89 "HgN/A
9:30 AM61 °FPassing clouds.3 mph68%29.86 "HgN/A
9:00 AM57 °FSunny.5 mph82%29.86 "Hg10 mi
8:30 AM55 °FSunny.3 mph82%29.86 "Hg10 mi
8:00 AM54 °FSunny.3 mph82%29.86 "Hg10 mi
7:30 AM50 °FSunny.3 mph94%29.86 "Hg10 mi
7:00 AM48 °FClear.2 mph94%29.86 "Hg10 mi
6:30 AM48 °FPassing clouds.3 mph94%29.83 "HgN/A
6:00 AM46 °FClear.1 mph93%29.86 "Hg10 mi
5:30 AM46 °FClear.5 mph93%29.86 "Hg10 mi
5:00 AM48 °FClear.5 mph87%29.86 "Hg10 mi
4:30 AM48 °FClear.2 mph87%29.86 "Hg10 mi
4:00 AM48 °FClear.3 mph87%29.86 "Hg10 mi
3:30 AM48 °FClear.3 mph87%29.86 "Hg10 mi
3:00 AM50 °FClear.3 mph88%29.86 "Hg10 mi
2:30 AM50 °FClear.5 mph88%29.86 "Hg10 mi
2:00 AM52 °FClear.3 mph82%29.86 "Hg10 mi
1:30 AM52 °FClear.5 mph82%29.86 "Hg10 mi
1:00 AM52 °FClear.5 mph82%29.86 "Hg10 mi
12:30 AM52 °FClear.3 mph82%29.86 "Hg10 mi
12:00 AM54 °FClear.3 mph77%29.86 "Hg10 mi
11:30 PM
Sun, Apr 26
55 °FClear.2 mph72%29.83 "Hg10 mi
11:00 PM57 °FClear.1 mph67%29.83 "Hg10 mi
Weather by CustomWeather, © 2015

See weather overviewHow to use our weather pages